EW8311 Weather Reports


time (UTC)temp
F
wind
direction
speed
knots
gust
knots
rain 1hr
in
rain 24hr
in
rain mn
in
humidity
%
barometer
mb
20260510191525 96 336 0.9 4.3 0.00 0.00 0.00 10 1005.1
20260510190027 94 262 0.0 3.5 0.00 0.00 0.00 10 1005.4
20260510184510 93 255 0.0 4.3 0.00 0.00 0.00 10 1005.5
20260510183010 93 267 0.0 4.3 0.00 0.00 0.00 10 1005.7
20260510181526 91 120 0.9 3.5 0.00 0.00 0.00 12 1005.8
20260510180008 92 96 2.6 4.3 0.00 0.00 0.00 10 1005.9
20260510174505 90 331 1.7 3.5 0.00 0.00 0.00 12 1005.9
20260510173007 90 229 0.9 3.5 0.00 0.00 0.00 12 1006.0
20260510171601 89 229 0.9 2.6 0.00 0.00 0.00 13 1006.0
20260510170105 88 278 0.0 2.6 0.00 0.00 0.00 13 1006.0
20260510164610 87 283 0.0 1.7 0.00 0.00 0.00 14 1006.0
20260510163053 86 109 0.0 1.7 0.00 0.00 0.00 16 1005.9
20260510161551 85 326 0.9 2.6 0.00 0.00 0.00 15 1006.0
20260510160052 84 319 0.0 1.7 0.00 0.00 0.00 15 1006.0
20260510154544 82 269 0.0 1.7 0.00 0.00 0.00 18 1006.0
20260510153047 82 332 0.0 1.7 0.00 0.00 0.00 20 1005.9
20260510151541 81 285 0.9 1.7 0.00 0.00 0.00 19 1005.9
20260510150044 82 240 0.0 0.9 0.00 0.00 0.00 24 1005.8
20260510144547 82 68 0.0 0.0 0.00 0.00 0.00 17 1005.8
20260510143037 81 68 0.0 0.0 0.00 0.00 0.00 21 1005.8
20260510141535 78 68 0.0 0.0 0.00 0.00 0.00 27 1005.8
20260510140031 76 68 0.0 0.0 0.00 0.00 0.00 24 1005.7
20260510134531 76 68 0.0 0.9 0.00 0.00 0.00 25 1005.6
20260510133029 73 68 0.0 0.9 0.00 0.00 0.00 22 1005.5
20260510131527 70 68 0.0 0.9 0.00 0.00 0.00 22 1005.2
20260510130026 69 117 0.0 0.9 0.00 0.00 0.00 24 1005.2
20260510124524 68 117 0.0 0.9 0.00 0.00 0.00 25 1005.2
20260510123024 65 1 0.0 0.9 0.00 0.00 0.00 28 1005.1
20260510121520 65 271 0.0 0.0 0.00 0.00 0.00 30 1005.0
20260510120018 66 271 0.0 1.7 0.00 0.00 0.00 32 1004.8
20260510114515 68 136 0.0 1.7 0.00 0.00 0.00 27 1004.6
20260510113019 68 356 0.0 0.9 0.00 0.00 0.00 27 1004.3
20260510111512 68 356 0.0 0.0 0.00 0.00 0.00 27 1004.3
20260510110011 68 356 0.0 1.7 0.00 0.00 0.00 29 1004.2
20260510104509 68 356 0.0 0.9 0.00 0.00 0.00 28 1004.3
20260510103007 68 61 0.0 0.0 0.00 0.00 0.00 25 1004.2
20260510101508 69 61 0.0 0.9 0.00 0.00 0.00 24 1004.2
20260510100005 69 61 0.0 0.0 0.00 0.00 0.00 28 1004.1
20260510094500 70 61 0.0 0.9 0.00 0.00 0.00 27 1004.0
20260510093100 70 61 0.0 0.0 0.00 0.00 0.00 25 1004.0
20260510091554 71 61 0.0 0.0 0.00 0.00 0.00 23 1004.0
20260510090056 72 61 0.0 0.0 0.00 0.00 0.00 23 1004.0
20260510084557 73 61 0.0 0.9 0.00 0.00 0.00 20 1004.0
20260510083054 72 100 0.0 0.0 0.00 0.00 0.00 22 1004.1
20260510081549 75 101 0.0 0.9 0.00 0.00 0.00 21 1004.1
20260510080049 76 101 0.0 2.6 0.00 0.00 0.00 23 1004.0
20260510074601 76 168 0.0 6.1 0.00 0.00 0.00 19 1004.1
20260510073047 75 110 0.0 1.7 0.00 0.00 0.00 21 1004.4
20260510071553 74 111 0.0 1.7 0.00 0.00 0.00 28 1004.3
20260510070041 75 270 0.0 1.7 0.00 0.00 0.00 21 1004.2
20260510064547 74 86 0.0 0.0 0.00 0.00 0.00 23 1004.1
20260510063037 75 110 0.0 1.7 0.00 0.00 0.00 21 1003.8
20260510061538 75 319 0.0 2.6 0.00 0.00 0.00 22 1003.7
20260510060041 77 307 0.0 0.0 0.00 0.00 0.00 25 1003.2
20260510054536 78 306 0.0 0.0 0.00 0.00 0.00 20 1003.0
20260510053035 80 135 1.7 3.5 0.00 0.00 0.00 16 1002.8
20260510051540 82 118 0.9 2.6 0.00 0.00 0.00 15 1002.7
20260510050034 83 114 0.0 2.6 0.00 0.00 0.00 16 1002.7
20260510044537 86 326 0.9 3.5 0.00 0.00 0.00 13 1002.6
20260510043043 87 270 1.7 7.0 0.00 0.00 0.00 12 1002.4
20260510041535 87 28 0.9 6.1 0.00 0.00 0.00 12 1002.3
20260510040032 86 199 0.9 4.3 0.00 0.00 0.00 12 1002.2
20260510034533 86 110 1.7 7.0 0.00 0.00 0.00 12 1002.0
20260510033031 85 244 0.0 3.5 0.00 0.00 0.00 13 1001.8
20260510031531 84 298 0.0 0.9 0.00 0.00 0.00 15 1001.7
20260510030030 87 297 0.0 1.7 0.00 0.00 0.00 12 1001.4
20260510024529 88 330 0.9 7.8 0.00 0.00 0.00 11 1001.3
20260510023029 87 333 1.7 3.5 0.00 0.00 0.00 13 1001.3
20260510021531 88 344 1.7 2.6 0.00 0.00 0.00 11 1001.1
20260510020027 90 322 0.9 3.5 0.00 0.00 0.00 11 1000.9
20260510014529 92 345 1.7 7.0 0.00 0.00 0.00 9 1000.8
20260510013028 93 318 3.5 7.8 0.00 0.00 0.00 9 1000.8
20260510011533 94 325 2.6 7.0 0.00 0.00 0.00 9 1000.8
20260510010034 94 310 2.6 7.8 0.00 0.00 0.00 9 1000.7
20260510004522 94 313 4.3 10.4 0.00 0.00 0.00 9 1000.8
20260510003024 96 315 0.0 5.2 0.00 0.00 0.00 9 1000.8
20260510001524 95 328 4.3 9.6 0.00 0.00 0.00 8 1000.9
20260510000020 96 335 0.9 9.6 0.00 0.00 0.00 9 1000.9
20260509234517 95 338 5.2 12.2 0.00 0.00 0.00 10 1001.1
20260509233015 96 302 2.6 7.8 0.00 0.00 0.00 8 1001.2
20260509231523 96 298 5.2 10.4 0.00 0.00 0.00 9 1001.3
20260509230011 96 322 4.3 7.8 0.00 0.00 0.00 9 1001.5
20260509224511 96 259 3.5 11.3 0.00 0.00 0.00 10 1001.6
20260509223008 96 302 6.1 11.3 0.00 0.00 0.00 10 1001.7
20260509221518 96 255 4.3 9.6 0.00 0.00 0.00 9 1002.0
20260509220004 97 95 2.6 7.0 0.00 0.00 0.00 10 1002.0
20260509214503 97 322 4.3 12.2 0.00 0.00 0.00 10 1002.3
20260509213102 96 210 2.6 7.0 0.00 0.00 0.00 10 1002.6
20260509211558 97 319 1.7 7.0 0.00 0.00 0.00 11 1002.7
20260509210100 95 239 1.7 5.2 0.00 0.00 0.00 11 1002.9
20260509204559 96 326 1.7 7.8 0.00 0.00 0.00 12 1003.2
20260509203055 96 315 2.6 7.8 0.00 0.00 0.00 12 1003.5
20260509201551 95 273 3.5 8.7 0.00 0.00 0.00 11 1003.7
20260509200048 96 321 2.6 7.0 0.00 0.00 0.00 12 1003.9
20260509194545 95 120 0.0 6.1 0.00 0.00 0.00 12 1004.2
20260509193046 93 235 0.9 5.2 0.00 0.00 0.00 13 1004.5